Location: ???? ???? ?????
(31.2680°N, 31.7283°E)
Time: 09:44:00
(UTC+00:00)

SeaSat 1 - Pass Details

Date: 13 July 2020
Orbit: 744 x 747 km, 108.0° (Epoch: 07 August)

Event Time Altitude Azimuth Distance (km) Brightness Sun altitude
Rises 23:00:26 0° 31° (NNE) 3,192 6.7 -35.1°
Reaches altitude 10° 23:02:48 10° 37° (NE) 2,266 5.6 -34.9°
Enters shadow 23:05:14 27° 53° (NE) 1,403 4.2 -34.8°
